Weather in Jalalabad

Afghanistan     34°25′09″N   70°27′42″E
temp.,
°C
wind,
m/s
gust,
m/s
humid.,
%
clouds,
%
prec.,
mm/h
press.,
hPa
HPBL,
m
4 august, wed
wed401:30+29e34586 1.6 999208
04:30+28ne23580 3.4 999186
07:30+30se11480 0.2 1001487
10:30+34se21410 0.3 10001611
13:30+37se33290 0.0 9982348
16:30+37se53300 0.0 9962215
19:30+33ese44474 0.0 998678
22:30+32se325362 0.1 999628
5 august, thu
thu501:30+30se22584 0.0 999454
04:30+29s12635 0.5 999123
07:30+30sse11570 0.5 1000740
10:30+34sse21400 0.7 10002003
13:30+37se32270 0.0 9962386
16:30+37sse43250 0.0 9952178
19:30+34ese55393 0.0 997668
22:30+30ese22431 0.1 999205
6 august, fri
fri601:30+28ene234733 0.9 999130
04:30+28sse00481 1.9 99995
07:30+30ese12410 0.0 1001427
10:30+34se11350 0.0 10001429
13:30+37se32240 0.0 9972241
16:30+38se54230 0.0 9962331
19:30+34sse34391 0.0 997742
22:30+33sse34450 0.0 999555
7 august, sat
sat701:30+30sw12440 1.3 999138
04:30+29n00510 1.9 99941
07:30+31se11480 0.3 1001609
10:30+34sse21380 0.3 10001793
13:30+38se32260 0.0 9982349
16:30+38se54250 0.0 9962489
19:30+34e56391 0.0 998865
22:30+31ese224419 0.1 1001222
8 august, sun
sun801:30+30ene33423 0.3 1000177
04:30+29ene22460 0.8 100188
07:30+31ese11390 0.1 1002421
10:30+34sse21350 0.1 10011552
13:30+38ese22220 0.0 9982059
16:30+39ese64220 0.0 9962381
19:30+33se45390 0.0 999631
22:30+32ssw21403 0.3 1001279